When you browse on this site, cookies collect data to enhance your experience and personalize the content and advertising you see.
Visit our Privacy Policy to learn more. By continuing to use the site, you agree to this use of cookies and data.
  • In Czech Republic
  • List of Countries
  • For 7 days
  • Water Temperature
  • Satellite Maps
  • Weather Map
  • Weather Widgets
  • user-avatar
    Login

    Hourly Weather Yulara

    Today, 23 July, Tuesday

    Time Temperature Precipitation Wind Pressure Humidity
    00:00 +12°C° 0 mm 4 mps 719 mmHg 26%
    01:00 +11°C° 0 mm 4 mps 719 mmHg 27%
    02:00 +11°C° 0 mm 4 mps 719 mmHg 27%
    03:00 +11°C° 0 mm 4 mps 720 mmHg 28%
    04:00 +10°C° 0 mm 4 mps 720 mmHg 30%
    05:00 +10°C° 0 mm 4 mps 720 mmHg 33%
    06:00 +8°C° 0 mm 4 mps 721 mmHg 36%
    07:00 +11°C° 0 mm 4 mps 721 mmHg 32%
    08:00 +13°C° 0 mm 4 mps 722 mmHg 29%
    09:00 +15°C° 0 mm 4 mps 722 mmHg 25%
    10:00 +17°C° 0 mm 5 mps 722 mmHg 23%
    11:00 +20°C° 0 mm 5 mps 722 mmHg 22%
    12:00 +23°C° 0 mm 5 mps 722 mmHg 20%
    13:00 +23°C° 0 mm 5 mps 722 mmHg 19%
    14:00 +25°C° 0 mm 4 mps 721 mmHg 19%
    15:00 +26°C° 0 mm 3 mps 721 mmHg 19%
    16:00 +23°C° 0 mm 4 mps 721 mmHg 21%
    17:00 +21°C° 0 mm 4 mps 721 mmHg 24%
    18:00 +19°C° 0 mm 4 mps 721 mmHg 27%
    19:00 +18°C° 0 mm 4 mps 721 mmHg 29%
    20:00 +17°C° 0 mm 4 mps 722 mmHg 30%
    21:00 +15°C° 0 mm 4 mps 722 mmHg 31%
    22:00 +14°C° 0 mm 4 mps 722 mmHg 33%
    23:00 +13°C° 0 mm 4 mps 722 mmHg 35%

    Tomorrow, 24 July, Wednesday

    Time Temperature Precipitation Wind Pressure Humidity
    00:00 +12°C° 0 mm 4 mps 722 mmHg 37%
    01:00 +12°C° 0 mm 4 mps 722 mmHg 39%
    02:00 +11°C° 0 mm 4 mps 722 mmHg 41%
    03:00 +9°C° 0 mm 5 mps 722 mmHg 43%
    04:00 +10°C° 0 mm 4 mps 722 mmHg 46%
    05:00 +8°C° 0 mm 4 mps 723 mmHg 50%
    06:00 +8°C° 0 mm 4 mps 723 mmHg 53%
    07:00 +10°C° 0 mm 4 mps 724 mmHg 48%
    08:00 +12°C° 0 mm 5 mps 724 mmHg 44%
    09:00 +14°C° 0 mm 5 mps 725 mmHg 39%
    10:00 +16°C° 0 mm 6 mps 724 mmHg 33%
    11:00 +20°C° 0 mm 6 mps 724 mmHg 27%
    12:00 +22°C° 0 mm 6 mps 724 mmHg 22%
    13:00 +23°C° 0 mm 6 mps 723 mmHg 21%
    14:00 +25°C° 0 mm 5 mps 723 mmHg 20%
    15:00 +25°C° 0 mm 5 mps 722 mmHg 19%
    16:00 +22°C° 0 mm 4 mps 722 mmHg 22%
    17:00 +20°C° 0 mm 4 mps 722 mmHg 25%
    18:00 +18°C° 0 mm 3 mps 722 mmHg 28%
    19:00 +17°C° 0 mm 3 mps 722 mmHg 29%
    20:00 +15°C° 0 mm 4 mps 723 mmHg 30%
    21:00 +14°C° 0 mm 4 mps 723 mmHg 31%
    22:00 +13°C° 0 mm 4 mps 723 mmHg 32%
    23:00 +12°C° 0 mm 4 mps 723 mmHg 34%

    Day after tomorrow, 25 July, Thursday

    Time Temperature Precipitation Wind Pressure Humidity
    00:00 +12°C° 0 mm 4 mps 723 mmHg 35%
    01:00 +11°C° 0 mm 3 mps 722 mmHg 37%
    02:00 +11°C° 0 mm 3 mps 722 mmHg 40%
    03:00 +10°C° 0 mm 3 mps 722 mmHg 42%
    04:00 +10°C° 0 mm 3 mps 722 mmHg 45%
    05:00 +10°C° 0 mm 3 mps 722 mmHg 47%
    06:00 +10°C° 0 mm 3 mps 722 mmHg 50%
    07:00 +11°C° 0 mm 3 mps 723 mmHg 46%
    08:00 +13°C° 0 mm 3 mps 723 mmHg 42%
    09:00 +14°C° 0 mm 3 mps 723 mmHg 39%
    10:00 +17°C° 0 mm 3 mps 723 mmHg 34%
    11:00 +19°C° 0 mm 3 mps 723 mmHg 29%
    12:00 +21°C° 0 mm 2 mps 723 mmHg 24%
    13:00 +23°C° 0 mm 2 mps 722 mmHg 22%
    14:00 +24°C° 0 mm 2 mps 721 mmHg 19%
    15:00 +25°C° 0 mm 1 mps 721 mmHg 17%
    16:00 +22°C° 0 mm 1 mps 721 mmHg 21%
    17:00 +20°C° 0 mm 1 mps 720 mmHg 25%
    18:00 +16°C° 0 mm 1 mps 720 mmHg 30%
    19:00 +16°C° 0 mm 2 mps 721 mmHg 29%
    20:00 +15°C° 0 mm 2 mps 721 mmHg 29%
    21:00 +14°C° 0 mm 3 mps 721 mmHg 29%
    22:00 +15°C° 0 mm 2 mps 721 mmHg 31%
    23:00 +14°C° 0 mm 2 mps 721 mmHg 32%

    26 July, Friday

    Time Temperature Precipitation Wind Pressure Humidity
    00:00 +13°C° 0 mm 2 mps 721 mmHg 34%
    01:00 +13°C° 0 mm 2 mps 720 mmHg 35%
    02:00 +12°C° 0 mm 2 mps 720 mmHg 36%
    03:00 +10°C° 0 mm 2 mps 720 mmHg 37%
    04:00 +10°C° 0 mm 2 mps 720 mmHg 38%
    05:00 +9°C° 0 mm 2 mps 720 mmHg 39%
    06:00 +9°C° 0 mm 2 mps 720 mmHg 41%
    07:00 +12°C° 0 mm 2 mps 721 mmHg 36%
    08:00 +14°C° 0 mm 2 mps 721 mmHg 31%
    09:00 +17°C° 0 mm 2 mps 722 mmHg 26%
    10:00 +19°C° 0 mm 3 mps 721 mmHg 23%
    11:00 +21°C° 0 mm 3 mps 721 mmHg 21%
    12:00 +25°C° 0 mm 3 mps 721 mmHg 18%
    13:00 +25°C° 0 mm 3 mps 721 mmHg 18%
    14:00 +26°C° 0 mm 2 mps 720 mmHg 18%
    15:00 +26°C° 0 mm 2 mps 719 mmHg 18%
    16:00 +24°C° 0 mm 2 mps 719 mmHg 21%
    17:00 +21°C° 0 mm 3 mps 719 mmHg 24%
    18:00 +19°C° 0 mm 3 mps 719 mmHg 28%
    19:00 +18°C° 0 mm 3 mps 720 mmHg 29%
    20:00 +17°C° 0 mm 4 mps 720 mmHg 30%
    21:00 +17°C° 0 mm 4 mps 721 mmHg 32%
    22:00 +15°C° 0 mm 4 mps 720 mmHg 33%
    23:00 +14°C° 0 mm 4 mps 720 mmHg 35%

    27 July, Saturday

    Time Temperature Precipitation Wind Pressure Humidity
    00:00 +13°C° 0 mm 4 mps 720 mmHg 37%
    01:00 +12°C° 0 mm 4 mps 720 mmHg 40%
    02:00 +11°C° 0 mm 3 mps 720 mmHg 43%
    03:00 +10°C° 0 mm 2 mps 719 mmHg 46%
    04:00 +10°C° 0 mm 2 mps 720 mmHg 46%
    05:00 +9°C° 0 mm 2 mps 720 mmHg 47%
    06:00 +9°C° 0 mm 2 mps 720 mmHg 48%
    07:00 +11°C° 0 mm 3 mps 721 mmHg 42%
    08:00 +14°C° 0 mm 3 mps 721 mmHg 36%
    09:00 +17°C° 0 mm 4 mps 721 mmHg 29%
    10:00 +19°C° 0 mm 4 mps 721 mmHg 26%
    11:00 +22°C° 0 mm 4 mps 721 mmHg 23%
    12:00 +25°C° 0 mm 4 mps 721 mmHg 19%
    13:00 +26°C° 0 mm 4 mps 720 mmHg 18%
    14:00 +26°C° 0 mm 3 mps 720 mmHg 17%
    15:00 +27°C° 0 mm 2 mps 719 mmHg 16%
    16:00 +24°C° 0 mm 2 mps 719 mmHg 20%
    17:00 +20°C° 0 mm 2 mps 719 mmHg 23%
    18:00 +18°C° 0 mm 2 mps 719 mmHg 27%
    19:00 +17°C° 0 mm 3 mps 719 mmHg 28%
    20:00 +17°C° 0 mm 3 mps 719 mmHg 28%
    21:00 +17°C° 0 mm 4 mps 720 mmHg 29%
    22:00 +15°C° 0 mm 4 mps 720 mmHg 30%
    23:00 +14°C° 0 mm 4 mps 720 mmHg 31%

    28 July, Sunday

    Time Temperature Precipitation Wind Pressure Humidity
    00:00 +13°C° 0 mm 3 mps 719 mmHg 32%
    01:00 +12°C° 0 mm 3 mps 719 mmHg 34%
    02:00 +12°C° 0 mm 3 mps 719 mmHg 35%
    03:00 +11°C° 0 mm 3 mps 719 mmHg 37%
    04:00 +11°C° 0 mm 3 mps 719 mmHg 38%
    05:00 +11°C° 0 mm 3 mps 719 mmHg 39%
    06:00 +11°C° 0 mm 4 mps 719 mmHg 40%
    07:00 +13°C° 0 mm 4 mps 719 mmHg 35%
    08:00 +17°C° 0 mm 4 mps 719 mmHg 30%
    09:00 +19°C° 0 mm 5 mps 720 mmHg 25%
    10:00 +22°C° 0 mm 5 mps 720 mmHg 22%
    11:00 +24°C° 0 mm 6 mps 719 mmHg 19%
    12:00 +27°C° 0 mm 6 mps 719 mmHg 16%
    13:00 +28°C° 0 mm 6 mps 719 mmHg 16%
    14:00 +28°C° 0 mm 7 mps 718 mmHg 16%
    15:00 +28°C° 0 mm 7 mps 718 mmHg 16%
    16:00 +27°C° 0 mm 6 mps 718 mmHg 18%
    17:00 +25°C° 0 mm 5 mps 718 mmHg 20%
    18:00 +23°C° 0 mm 4 mps 718 mmHg 22%
    19:00 +21°C° 0 mm 4 mps 718 mmHg 27%
    20:00 +19°C° 0 mm 4 mps 719 mmHg 32%
    21:00 +18°C° 0 mm 4 mps 719 mmHg 37%
    22:00 +15°C° 0 mm 4 mps 719 mmHg 48%
    23:00 +14°C° 0 mm 5 mps 719 mmHg 58%
    Show more